Time,TemperatureF,DewpointF,PressureIn,WindDirection,WindDirectionDegrees,WindSpeedMPH,WindSpeedGustMPH,Humidity,HourlyPrecipIn,Conditions,Clouds,dailyrainin,SolarRadiationWatts/m^2,SoftwareType,DateUTC
2013-01-18 00:01:00,38.1,35.7,29.36,WNW,292,6.0,6.0,91,0.00,,,0.00,0,Wunderground v.1.15,2013-01-17 23:01:00,
2013-01-18 00:06:00,38.1,35.7,29.36,WNW,300,7.0,7.0,91,0.00,,,0.00,0,Wunderground v.1.15,2013-01-17 23:06:00,
2013-01-18 00:16:00,38.1,35.7,29.36,WNW,291,6.0,7.0,91,0.00,,,0.00,0,Wunderground v.1.15,2013-01-17 23:16:00,
2013-01-18 00:26:00,38.0,35.6,29.36,WNW,292,7.0,7.0,91,0.00,,,0.00,0,Wunderground v.1.15,2013-01-17 23:26:00,
2013-01-18 00:31:00,38.0,35.6,29.36,NW,320,7.0,7.0,91,0.00,,,0.00,0,Wunderground v.1.15,2013-01-17 23:31:00,
2013-01-18 00:36:00,38.0,35.6,29.36,NW,306,7.0,7.0,91,0.00,,,0.00,0,Wunderground v.1.15,2013-01-17 23:36:00,
2013-01-18 00:46:00,38.0,35.9,29.36,NNW,331,7.0,7.0,92,0.00,,,0.00,0,Wunderground v.1.15,2013-01-17 23:46:00,
2013-01-18 00:56:00,38.0,35.9,29.36,NW,307,6.0,7.0,92,0.00,,,0.00,0,Wunderground v.1.15,2013-01-17 23:56:00,
2013-01-18 01:01:00,38.0,35.9,29.36,NW,318,6.0,6.0,92,0.00,,,0.00,0,Wunderground v.1.15,2013-01-18 00:01:00,
2013-01-18 01:11:00,38.1,36.0,29.37,NW,325,6.0,6.0,92,0.00,,,0.00,0,Wunderground v.1.15,2013-01-18 00:11:00,
2013-01-18 01:16:00,38.0,35.9,29.37,NW,309,7.0,7.0,92,0.00,,,0.00,0,Wunderground v.1.15,2013-01-18 00:16:00,
2013-01-18 01:26:00,38.0,35.9,29.37,NW,311,7.0,7.0,92,0.00,,,0.00,0,Wunderground v.1.15,2013-01-18 00:26:00,
2013-01-18 01:36:00,38.0,36.2,29.37,NW,306,6.0,7.0,93,0.00,,,0.00,0,Wunderground v.1.15,2013-01-18 00:36:00,
2013-01-18 01:41:00,38.1,36.3,29.37,NW,312,5.0,5.0,93,0.00,,,0.00,0,Wunderground v.1.15,2013-01-18 00:41:00,
2013-01-18 01:46:00,38.1,36.3,29.38,NW,318,4.0,6.0,93,0.00,,,0.00,0,Wunderground v.1.15,2013-01-18 00:46:00,
2013-01-18 01:56:00,38.2,36.4,29.38,NNW,333,5.0,5.0,93,0.00,,,0.00,0,Wunderground v.1.15,2013-01-18 00:56:00,
2013-01-18 02:01:00,38.2,36.4,29.38,NNW,340,5.0,5.0,93,0.00,,,0.00,0,Wunderground v.1.15,2013-01-18 01:01:00,
2013-01-18 02:11:00,38.3,36.5,29.38,NW,326,3.0,3.0,93,0.00,,,0.00,0,Wunderground v.1.15,2013-01-18 01:11:00,
2013-01-18 02:16:00,38.4,36.6,29.39,WNW,288,3.0,6.0,93,0.00,,,0.00,0,Wunderground v.1.15,2013-01-18 01:16:00,
2013-01-18 02:26:00,38.2,36.4,29.39,WNW,298,4.0,4.0,93,0.00,,,0.00,0,Wunderground v.1.15,2013-01-18 01:26:00,
2013-01-18 02:36:00,38.2,36.4,29.39,NW,314,5.0,6.0,93,0.00,,,0.00,0,Wunderground v.1.15,2013-01-18 01:36:00,
2013-01-18 02:41:00,38.1,36.3,29.39,WNW,283,5.0,5.0,93,0.00,,,0.00,0,Wunderground v.1.15,2013-01-18 01:41:00,
2013-01-18 02:51:00,38.0,36.2,29.38,West,271,4.0,5.0,93,0.00,,,0.00,0,Wunderground v.1.15,2013-01-18 01:51:00,
2013-01-18 03:01:00,37.8,36.0,29.38,West,278,5.0,7.0,93,0.00,,,0.00,0,Wunderground v.1.15,2013-01-18 02:01:00,
2013-01-18 03:06:00,37.6,35.8,29.39,WNW,300,5.0,7.0,93,0.00,,,0.00,0,Wunderground v.1.15,2013-01-18 02:06:00,
2013-01-18 03:16:00,37.5,35.9,29.39,West,278,6.0,8.0,94,0.00,,,0.00,0,Wunderground v.1.15,2013-01-18 02:16:00,
2013-01-18 03:26:00,37.6,36.0,29.39,West,279,5.0,6.0,94,0.00,,,0.00,0,Wunderground v.1.15,2013-01-18 02:26:00,
2013-01-18 03:31:00,37.6,36.0,29.39,WNW,285,5.0,5.0,94,0.00,,,0.00,0,Wunderground v.1.15,2013-01-18 02:31:00,
2013-01-18 03:41:00,37.7,36.1,29.39,WNW,302,5.0,5.0,94,0.00,,,0.00,0,Wunderground v.1.15,2013-01-18 02:41:00,
2013-01-18 03:46:00,37.7,36.1,29.39,NW,307,5.0,6.0,94,0.00,,,0.00,0,Wunderground v.1.15,2013-01-18 02:46:00,
2013-01-18 03:56:00,37.8,36.2,29.39,WNW,283,6.0,6.0,94,0.00,,,0.00,0,Wunderground v.1.15,2013-01-18 02:56:00,
2013-01-18 04:01:00,37.9,36.3,29.39,WNW,292,6.0,11.0,94,0.00,,,0.00,0,Wunderground v.1.15,2013-01-18 03:01:00,
2013-01-18 04:11:00,38.0,36.4,29.40,WNW,302,5.0,5.0,94,0.00,,,0.00,0,Wunderground v.1.15,2013-01-18 03:11:00,
2013-01-18 04:21:00,38.2,36.4,29.40,NNW,336,6.0,8.0,93,0.00,,,0.00,0,Wunderground v.1.15,2013-01-18 03:21:00,
2013-01-18 04:26:00,38.4,36.6,29.40,NW,326,8.0,8.0,93,0.00,,,0.00,0,Wunderground v.1.15,2013-01-18 03:26:00,
2013-01-18 04:31:00,38.8,36.9,29.40,NNW,340,8.0,14.0,93,0.00,,,0.00,0,Wunderground v.1.15,2013-01-18 03:31:00,
2013-01-18 04:41:00,39.3,37.2,29.40,NW,315,7.0,8.0,92,0.00,,,0.00,0,Wunderground v.1.15,2013-01-18 03:41:00,
2013-01-18 04:51:00,39.8,37.4,29.40,NNW,346,8.0,9.0,91,0.00,,,0.00,0,Wunderground v.1.15,2013-01-18 03:51:00,
2013-01-18 04:56:00,40.1,37.1,29.40,NW,305,9.0,9.0,89,0.00,,,0.00,0,Wunderground v.1.15,2013-01-18 03:56:00,
2013-01-18 05:06:00,40.4,37.1,29.40,North,351,7.0,10.0,88,0.00,,,0.01,0,Wunderground v.1.15,2013-01-18 04:06:00,
2013-01-18 05:11:00,40.5,36.9,29.41,West,273,7.0,8.0,87,0.00,,,0.01,0,Wunderground v.1.15,2013-01-18 04:11:00,
2013-01-18 05:21:00,40.1,36.5,29.40,WNW,293,6.0,6.0,87,0.00,,,0.01,0,Wunderground v.1.15,2013-01-18 04:21:00,
2013-01-18 05:31:00,40.1,36.5,29.41,WNW,284,6.0,7.0,87,0.00,,,0.01,0,Wunderground v.1.15,2013-01-18 04:31:00,
2013-01-18 05:41:00,40.1,36.5,29.41,NW,308,7.0,7.0,87,0.00,,,0.01,0,Wunderground v.1.15,2013-01-18 04:41:00,
2013-01-18 05:46:00,40.3,36.7,29.41,NW,309,8.0,9.0,87,0.00,,,0.01,0,Wunderground v.1.15,2013-01-18 04:46:00,
2013-01-18 05:56:00,41.4,36.3,29.41,NNW,330,11.0,12.0,82,0.00,,,0.01,0,Wunderground v.1.15,2013-01-18 04:56:00,
2013-01-18 06:06:00,41.5,36.1,29.42,NW,321,9.0,10.0,81,0.00,,,0.01,0,Wunderground v.1.15,2013-01-18 05:06:00,
2013-01-18 06:11:00,41.4,36.0,29.42,NNW,340,9.0,10.0,81,0.00,,,0.01,0,Wunderground v.1.15,2013-01-18 05:11:00,
2013-01-18 06:16:00,41.7,36.0,29.41,NNW,342,11.0,18.0,80,0.00,,,0.01,0,Wunderground v.1.15,2013-01-18 05:16:00,
2013-01-18 06:21:00,42.2,35.8,29.41,NNW,331,13.0,13.0,78,0.00,,,0.01,0,Wunderground v.1.15,2013-01-18 05:21:00,
2013-01-18 06:26:00,42.4,35.7,29.41,NW,323,13.0,14.0,77,0.00,,,0.01,0,Wunderground v.1.15,2013-01-18 05:26:00,
2013-01-18 06:31:00,42.6,35.2,29.41,NNW,342,14.0,19.0,75,0.00,,,0.01,0,Wunderground v.1.15,2013-01-18 05:31:00,
2013-01-18 06:41:00,42.6,34.9,29.41,WNW,300,14.0,14.0,74,0.00,,,0.01,0,Wunderground v.1.15,2013-01-18 05:41:00,
2013-01-18 06:46:00,42.6,34.9,29.41,North,355,13.0,14.0,74,0.00,,,0.01,0,Wunderground v.1.15,2013-01-18 05:46:00,
2013-01-18 06:56:00,42.6,34.9,29.41,NNW,336,12.0,15.0,74,0.00,,,0.01,0,Wunderground v.1.15,2013-01-18 05:56:00,
2013-01-18 07:06:00,42.6,34.9,29.43,NNW,334,13.0,20.0,74,0.00,,,0.01,0,Wunderground v.1.15,2013-01-18 06:06:00,
2013-01-18 07:11:00,42.6,34.5,29.43,NNW,332,14.0,14.0,73,0.00,,,0.01,0,Wunderground v.1.15,2013-01-18 06:11:00,
2013-01-18 07:16:00,42.6,34.5,29.43,NNW,337,12.0,14.0,73,0.00,,,0.01,0,Wunderground v.1.15,2013-01-18 06:16:00,
2013-01-18 07:21:00,42.5,34.5,29.43,NNW,333,11.0,11.0,73,0.00,,,0.01,0,Wunderground v.1.15,2013-01-18 06:21:00,
2013-01-18 07:26:00,42.4,34.4,29.42,NW,321,11.0,11.0,73,0.00,,,0.01,0,Wunderground v.1.15,2013-01-18 06:26:00,
2013-01-18 07:36:00,42.2,34.5,29.43,NW,315,12.0,14.0,74,0.00,,,0.01,0,Wunderground v.1.15,2013-01-18 06:36:00,
2013-01-18 07:41:00,41.7,34.7,29.43,WNW,283,11.0,11.0,76,0.00,,,0.01,5,Wunderground v.1.15,2013-01-18 06:41:00,
2013-01-18 07:51:00,40.8,34.5,29.43,WNW,292,11.0,11.0,78,0.00,,,0.01,14,Wunderground v.1.15,2013-01-18 06:51:00,
2013-01-18 07:56:00,40.6,34.6,29.43,NW,311,11.0,11.0,79,0.00,,,0.01,21,Wunderground v.1.15,2013-01-18 06:56:00,
2013-01-18 08:01:00,40.5,34.5,29.44,NW,319,11.0,11.0,79,0.00,,,0.01,26,Wunderground v.1.15,2013-01-18 07:01:00,
2013-01-18 08:11:00,40.3,34.3,29.44,WNW,293,10.0,10.0,79,0.00,,,0.01,30,Wunderground v.1.15,2013-01-18 07:11:00,
2013-01-18 08:21:00,40.3,34.3,29.44,NNW,341,12.0,12.0,79,0.00,,,0.01,30,Wunderground v.1.15,2013-01-18 07:21:00,
2013-01-18 08:26:00,40.2,34.5,29.44,NW,324,11.0,12.0,80,0.00,,,0.01,33,Wunderground v.1.15,2013-01-18 07:26:00,
2013-01-18 08:36:00,40.2,34.5,29.45,NW,311,11.0,13.0,80,0.00,,,0.01,42,Wunderground v.1.15,2013-01-18 07:36:00,
2013-01-18 08:41:00,40.2,34.5,29.45,NW,307,11.0,11.0,80,0.00,,,0.01,42,Wunderground v.1.15,2013-01-18 07:41:00,
2013-01-18 08:51:00,40.0,34.3,29.46,NW,308,10.0,10.0,80,0.00,,,0.01,51,Wunderground v.1.15,2013-01-18 07:51:00,
2013-01-18 08:56:00,40.0,34.6,29.46,NW,318,11.0,11.0,81,0.00,,,0.01,69,Wunderground v.1.15,2013-01-18 07:56:00,
2013-01-18 09:06:00,40.3,34.9,29.47,NW,311,10.0,12.0,81,0.00,,,0.01,206,Wunderground v.1.15,2013-01-18 08:06:00,
2013-01-18 09:11:00,40.7,35.0,29.46,NW,311,11.0,11.0,80,0.00,,,0.01,204,Wunderground v.1.15,2013-01-18 08:11:00,
2013-01-18 09:21:00,41.6,35.6,29.46,WNW,296,12.0,12.0,79,0.00,,,0.01,262,Wunderground v.1.15,2013-01-18 08:21:00,
2013-01-18 09:26:00,42.0,35.6,29.47,WNW,301,12.0,12.0,78,0.00,,,0.01,236,Wunderground v.1.15,2013-01-18 08:26:00,
2013-01-18 09:36:00,42.6,35.9,29.47,NNW,327,14.0,16.0,77,0.00,,,0.01,274,Wunderground v.1.15,2013-01-18 08:36:00,
2013-01-18 09:41:00,42.7,35.7,29.47,NW,309,15.0,15.0,76,0.00,,,0.01,285,Wunderground v.1.15,2013-01-18 08:41:00,
2013-01-18 09:51:00,42.9,35.5,29.47,WNW,282,15.0,15.0,75,0.00,,,0.01,295,Wunderground v.1.15,2013-01-18 08:51:00,
2013-01-18 10:01:00,43.1,35.7,29.48,NW,315,15.0,15.0,75,0.00,,,0.01,315,Wunderground v.1.15,2013-01-18 09:01:00,
2013-01-18 10:06:00,43.3,35.6,29.48,NW,323,15.0,15.0,74,0.00,,,0.01,330,Wunderground v.1.15,2013-01-18 09:06:00,
2013-01-18 10:16:00,43.4,35.3,29.48,NW,319,16.0,18.0,73,0.00,,,0.01,346,Wunderground v.1.15,2013-01-18 09:16:00,
2013-01-18 10:21:00,43.7,36.0,29.49,WSW,254,14.0,14.0,74,0.00,,,0.01,352,Wunderground v.1.15,2013-01-18 09:21:00,
2013-01-18 10:31:00,43.3,35.2,29.49,NW,325,16.0,21.0,73,0.00,,,0.01,348,Wunderground v.1.15,2013-01-18 09:31:00,
2013-01-18 10:41:00,43.6,35.9,29.49,WNW,302,15.0,19.0,74,0.00,,,0.01,360,Wunderground v.1.15,2013-01-18 09:41:00,
2013-01-18 10:51:00,43.5,35.1,29.49,WNW,298,18.0,18.0,72,0.00,,,0.01,374,Wunderground v.1.15,2013-01-18 09:51:00,
2013-01-18 10:56:00,43.6,35.2,29.49,NW,313,18.0,18.0,72,0.00,,,0.01,378,Wunderground v.1.15,2013-01-18 09:56:00,
2013-01-18 11:06:00,44.1,35.6,29.49,NNW,344,16.0,18.0,72,0.00,,,0.01,387,Wunderground v.1.15,2013-01-18 10:06:00,
2013-01-18 11:11:00,44.3,35.5,29.49,WNW,303,15.0,15.0,71,0.00,,,0.01,390,Wunderground v.1.15,2013-01-18 10:11:00,
2013-01-18 11:16:00,44.5,35.7,29.49,NNW,337,15.0,17.0,71,0.00,,,0.01,392,Wunderground v.1.15,2013-01-18 10:16:00,
2013-01-18 11:26:00,44.6,35.4,29.50,NW,313,16.0,19.0,70,0.00,,,0.01,411,Wunderground v.1.15,2013-01-18 10:26:00,
2013-01-18 11:31:00,45.0,35.8,29.50,NW,314,14.0,20.0,70,0.00,,,0.01,404,Wunderground v.1.15,2013-01-18 10:31:00,
2013-01-18 11:41:00,45.3,36.1,29.50,North,360,15.0,15.0,70,0.00,,,0.01,418,Wunderground v.1.15,2013-01-18 10:41:00,
2013-01-18 11:46:00,45.6,36.0,29.50,NNW,327,14.0,15.0,69,0.00,,,0.01,427,Wunderground v.1.15,2013-01-18 10:46:00,
2013-01-18 11:56:00,46.1,34.6,29.50,North,351,17.0,18.0,64,0.00,,,0.01,529,Wunderground v.1.15,2013-01-18 10:56:00,
2013-01-18 12:01:00,46.4,35.3,29.50,NW,316,17.0,18.0,65,0.00,,,0.01,563,Wunderground v.1.15,2013-01-18 11:01:00,
2013-01-18 12:11:00,46.0,34.9,29.50,North,360,13.0,13.0,65,0.00,,,0.01,220,Wunderground v.1.15,2013-01-18 11:11:00,
2013-01-18 12:16:00,45.8,35.1,29.50,NW,313,12.0,13.0,66,0.00,,,0.01,218,Wunderground v.1.15,2013-01-18 11:16:00,
2013-01-18 12:26:00,45.2,34.5,29.50,NNW,346,13.0,13.0,66,0.00,,,0.01,165,Wunderground v.1.15,2013-01-18 11:26:00,
2013-01-18 12:31:00,45.3,35.4,29.50,NNW,338,12.0,14.0,68,0.00,,,0.01,216,Wunderground v.1.15,2013-01-18 11:31:00,
2013-01-18 12:36:00,46.0,35.7,29.50,NW,312,10.0,14.0,67,0.00,,,0.01,462,Wunderground v.1.15,2013-01-18 11:36:00,
2013-01-18 12:46:00,46.4,34.1,29.50,NNW,327,14.0,22.0,62,0.00,,,0.01,127,Wunderground v.1.15,2013-01-18 11:46:00,
2013-01-18 12:51:00,46.3,35.2,29.50,NNW,346,13.0,13.0,65,0.00,,,0.01,137,Wunderground v.1.15,2013-01-18 11:51:00,
2013-01-18 13:01:00,46.2,35.1,29.50,NW,318,14.0,16.0,65,0.00,,,0.01,462,Wunderground v.1.15,2013-01-18 12:01:00,
2013-01-18 13:11:00,46.6,34.7,29.50,NW,306,15.0,15.0,63,0.00,,,0.01,482,Wunderground v.1.15,2013-01-18 12:11:00,
2013-01-18 13:16:00,46.8,34.5,29.50,NNW,340,16.0,16.0,62,0.00,,,0.01,422,Wunderground v.1.15,2013-01-18 12:16:00,
2013-01-18 13:26:00,47.1,34.3,29.50,NNW,328,14.0,15.0,61,0.00,,,0.01,422,Wunderground v.1.15,2013-01-18 12:26:00,
2013-01-18 13:36:00,47.3,34.9,29.50,NNW,327,12.0,13.0,62,0.00,,,0.01,388,Wunderground v.1.15,2013-01-18 12:36:00,
2013-01-18 13:41:00,47.2,34.8,29.50,NW,325,14.0,21.0,62,0.00,,,0.01,388,Wunderground v.1.15,2013-01-18 12:41:00,
2013-01-18 13:51:00,47.1,33.9,29.50,NW,321,17.0,20.0,60,0.00,,,0.01,339,Wunderground v.1.15,2013-01-18 12:51:00,
2013-01-18 13:56:00,47.0,33.8,29.50,NW,321,17.0,20.0,60,0.00,,,0.01,381,Wunderground v.1.15,2013-01-18 12:56:00,
2013-01-18 14:06:00,47.0,33.8,29.50,NNW,331,15.0,17.0,60,0.00,,,0.01,359,Wunderground v.1.15,2013-01-18 13:06:00,
2013-01-18 14:16:00,47.3,34.5,29.50,North,360,14.0,14.0,61,0.00,,,0.01,336,Wunderground v.1.15,2013-01-18 13:16:00,
2013-01-18 14:26:00,47.4,34.6,29.51,NNW,345,14.0,15.0,61,0.00,,,0.01,327,Wunderground v.1.15,2013-01-18 13:26:00,
2013-01-18 14:31:00,47.4,34.6,29.51,NW,320,13.0,13.0,61,0.00,,,0.01,315,Wunderground v.1.15,2013-01-18 13:31:00,
2013-01-18 14:41:00,47.1,33.9,29.51,NNE,13,14.0,14.0,60,0.00,,,0.01,297,Wunderground v.1.15,2013-01-18 13:41:00,
2013-01-18 14:46:00,47.0,34.2,29.51,North,11,15.0,15.0,61,0.00,,,0.01,290,Wunderground v.1.15,2013-01-18 13:46:00,
2013-01-18 14:56:00,47.0,34.2,29.50,North,355,14.0,21.0,61,0.00,,,0.01,271,Wunderground v.1.15,2013-01-18 13:56:00,
2013-01-18 15:01:00,46.9,33.7,29.51,North,349,16.0,21.0,60,0.00,,,0.01,260,Wunderground v.1.15,2013-01-18 14:01:00,
2013-01-18 15:06:00,46.8,33.6,29.51,North,349,18.0,21.0,60,0.00,,,0.01,253,Wunderground v.1.15,2013-01-18 14:06:00,
2013-01-18 15:16:00,46.6,33.9,29.52,NW,310,16.0,21.0,61,0.00,,,0.01,227,Wunderground v.1.15,2013-01-18 14:16:00,
2013-01-18 15:26:00,46.4,33.7,29.52,NW,323,20.0,20.0,61,0.00,,,0.01,197,Wunderground v.1.15,2013-01-18 14:26:00,
2013-01-18 15:36:00,46.4,33.7,29.52,NNW,331,15.0,16.0,61,0.00,,,0.01,171,Wunderground v.1.15,2013-01-18 14:36:00,
2013-01-18 15:41:00,46.4,34.1,29.52,NNW,341,14.0,14.0,62,0.00,,,0.01,158,Wunderground v.1.15,2013-01-18 14:41:00,
2013-01-18 15:46:00,46.5,34.2,29.53,NNW,329,11.0,14.0,62,0.00,,,0.01,146,Wunderground v.1.15,2013-01-18 14:46:00,
2013-01-18 15:56:00,46.3,33.6,29.53,NW,317,14.0,14.0,61,0.00,,,0.01,121,Wunderground v.1.15,2013-01-18 14:56:00,
2013-01-18 16:01:00,46.2,33.9,29.53,North,355,13.0,13.0,62,0.00,,,0.01,105,Wunderground v.1.15,2013-01-18 15:01:00,
2013-01-18 16:11:00,46.0,33.7,29.53,NNW,342,13.0,13.0,62,0.00,,,0.01,81,Wunderground v.1.15,2013-01-18 15:11:00,
2013-01-18 16:21:00,45.8,33.9,29.53,NNW,334,12.0,12.0,63,0.00,,,0.01,60,Wunderground v.1.15,2013-01-18 15:21:00,
2013-01-18 16:26:00,45.7,33.8,29.54,NNW,346,12.0,12.0,63,0.00,,,0.01,49,Wunderground v.1.15,2013-01-18 15:26:00,
2013-01-18 16:36:00,45.6,33.7,29.55,NNW,341,10.0,12.0,63,0.00,,,0.01,30,Wunderground v.1.15,2013-01-18 15:36:00,
2013-01-18 16:41:00,45.5,34.0,29.55,NW,319,10.0,10.0,64,0.00,,,0.01,23,Wunderground v.1.15,2013-01-18 15:41:00,
2013-01-18 16:51:00,45.3,33.8,29.56,NW,323,11.0,13.0,64,0.00,,,0.01,11,Wunderground v.1.15,2013-01-18 15:51:00,
2013-01-18 16:56:00,45.1,33.6,29.56,NW,322,13.0,13.0,64,0.00,,,0.01,9,Wunderground v.1.15,2013-01-18 15:56:00,
2013-01-18 17:06:00,44.7,33.6,29.57,NW,326,12.0,13.0,65,0.00,,,0.01,0,Wunderground v.1.15,2013-01-18 16:06:00,
2013-01-18 17:11:00,44.5,33.5,29.57,NNW,338,12.0,12.0,65,0.00,,,0.01,0,Wunderground v.1.15,2013-01-18 16:11:00,
2013-01-18 17:21:00,44.3,33.7,29.58,NNW,331,10.0,10.0,66,0.00,,,0.01,0,Wunderground v.1.15,2013-01-18 16:21:00,
2013-01-18 17:31:00,44.0,33.4,29.58,WNW,299,8.0,8.0,66,0.00,,,0.01,0,Wunderground v.1.15,2013-01-18 16:31:00,
2013-01-18 17:36:00,43.9,33.6,29.58,NNW,342,8.0,8.0,67,0.00,,,0.01,0,Wunderground v.1.15,2013-01-18 16:36:00,
2013-01-18 17:46:00,43.5,33.6,29.58,NNW,334,7.0,7.0,68,0.00,,,0.01,0,Wunderground v.1.15,2013-01-18 16:46:00,
2013-01-18 17:51:00,43.4,33.5,29.59,NW,315,7.0,11.0,68,0.00,,,0.01,0,Wunderground v.1.15,2013-01-18 16:51:00,
2013-01-18 18:01:00,43.3,33.8,29.59,NNW,329,8.0,8.0,69,0.00,,,0.01,0,Wunderground v.1.15,2013-01-18 17:01:00,
2013-01-18 18:06:00,43.3,33.8,29.59,NW,323,8.0,8.0,69,0.00,,,0.01,0,Wunderground v.1.15,2013-01-18 17:06:00,
2013-01-18 18:16:00,43.2,33.7,29.59,NNW,332,7.0,8.0,69,0.00,,,0.01,0,Wunderground v.1.15,2013-01-18 17:16:00,
2013-01-18 18:21:00,43.0,33.9,29.59,NW,321,7.0,7.0,70,0.00,,,0.01,0,Wunderground v.1.15,2013-01-18 17:21:00,
2013-01-18 18:31:00,42.7,33.9,29.59,NNW,335,6.0,7.0,71,0.00,,,0.01,0,Wunderground v.1.15,2013-01-18 17:31:00,
2013-01-18 18:36:00,42.6,33.9,29.59,NNW,342,6.0,8.0,71,0.00,,,0.01,0,Wunderground v.1.15,2013-01-18 17:36:00,
2013-01-18 18:46:00,42.4,34.0,29.59,NNE,16,5.0,8.0,72,0.00,,,0.01,0,Wunderground v.1.15,2013-01-18 17:46:00,
2013-01-18 18:56:00,42.3,33.9,29.58,NNW,338,4.0,5.0,72,0.00,,,0.01,0,Wunderground v.1.15,2013-01-18 17:56:00,
2013-01-18 19:01:00,42.2,33.8,29.59,North,355,4.0,4.0,72,0.00,,,0.01,0,Wunderground v.1.15,2013-01-18 18:01:00,
2013-01-18 19:06:00,42.1,34.1,29.59,NNW,342,3.0,5.0,73,0.00,,,0.01,0,Wunderground v.1.15,2013-01-18 18:06:00,
2013-01-18 19:16:00,41.8,33.8,29.59,NW,322,4.0,5.0,73,0.00,,,0.01,0,Wunderground v.1.15,2013-01-18 18:16:00,
2013-01-18 19:21:00,41.8,34.1,29.59,NW,323,5.0,7.0,74,0.00,,,0.01,0,Wunderground v.1.15,2013-01-18 18:21:00,
2013-01-18 19:31:00,42.0,34.0,29.59,North,349,6.0,6.0,73,0.00,,,0.01,0,Wunderground v.1.15,2013-01-18 18:31:00,
2013-01-18 19:36:00,42.1,34.1,29.59,NW,315,5.0,6.0,73,0.00,,,0.01,0,Wunderground v.1.15,2013-01-18 18:36:00,
2013-01-18 19:46:00,42.1,33.7,29.59,NNW,335,5.0,5.0,72,0.00,,,0.01,0,Wunderground v.1.15,2013-01-18 18:46:00,
2013-01-18 19:51:00,42.0,33.6,29.59,NNW,329,5.0,5.0,72,0.00,,,0.01,0,Wunderground v.1.15,2013-01-18 18:51:00,
2013-01-18 20:01:00,41.8,33.4,29.59,NW,324,6.0,6.0,72,0.00,,,0.01,0,Wunderground v.1.15,2013-01-18 19:01:00,
2013-01-18 20:06:00,41.7,33.7,29.59,NW,323,6.0,6.0,73,0.00,,,0.01,0,Wunderground v.1.15,2013-01-18 19:06:00,
2013-01-18 20:11:00,41.6,33.6,29.59,NW,326,5.0,6.0,73,0.00,,,0.01,0,Wunderground v.1.15,2013-01-18 19:11:00,
2013-01-18 20:16:00,41.4,33.7,29.59,NNW,330,5.0,6.0,74,0.00,,,0.01,0,Wunderground v.1.15,2013-01-18 19:16:00,
2013-01-18 20:26:00,41.1,33.4,29.59,NNW,348,4.0,4.0,74,0.00,,,0.01,0,Wunderground v.1.15,2013-01-18 19:26:00,
2013-01-18 20:31:00,41.1,33.4,29.59,NNW,336,3.0,3.0,74,0.00,,,0.01,0,Wunderground v.1.15,2013-01-18 19:31:00,
2013-01-18 20:41:00,40.9,33.6,29.60,NW,323,2.0,2.0,75,0.00,,,0.01,0,Wunderground v.1.15,2013-01-18 19:41:00,
2013-01-18 20:46:00,40.9,33.6,29.60,West,281,2.0,3.0,75,0.00,,,0.01,0,Wunderground v.1.15,2013-01-18 19:46:00,
2013-01-18 20:51:00,40.8,33.5,29.60,NW,306,3.0,3.0,75,0.00,,,0.01,0,Wunderground v.1.15,2013-01-18 19:51:00,
2013-01-18 20:56:00,40.5,33.2,29.60,WNW,296,2.0,4.0,75,0.00,,,0.01,0,Wunderground v.1.15,2013-01-18 19:56:00,
2013-01-18 21:06:00,40.2,33.2,29.60,WNW,286,4.0,4.0,76,0.00,,,0.01,0,Wunderground v.1.15,2013-01-18 20:06:00,
2013-01-18 21:11:00,40.1,33.1,29.60,WNW,300,5.0,5.0,76,0.00,,,0.01,0,Wunderground v.1.15,2013-01-18 20:11:00,
2013-01-18 21:21:00,40.0,33.4,29.61,WNW,295,5.0,5.0,77,0.00,,,0.01,0,Wunderground v.1.15,2013-01-18 20:21:00,
2013-01-18 21:26:00,39.9,33.3,29.61,NW,306,4.0,5.0,77,0.00,,,0.01,0,Wunderground v.1.15,2013-01-18 20:26:00,
2013-01-18 21:36:00,39.7,33.1,29.61,NW,306,1.0,3.0,77,0.00,,,0.01,0,Wunderground v.1.15,2013-01-18 20:36:00,
2013-01-18 21:46:00,39.5,33.2,29.62,NW,306,0.0,1.0,78,0.00,,,0.01,0,Wunderground v.1.15,2013-01-18 20:46:00,
2013-01-18 21:51:00,39.4,33.1,29.62,NW,306,0.0,0.0,78,0.00,,,0.01,0,Wunderground v.1.15,2013-01-18 20:51:00,
2013-01-18 22:01:00,39.4,33.4,29.62,NW,306,0.0,0.0,79,0.00,,,0.01,0,Wunderground v.1.15,2013-01-18 21:01:00,
2013-01-18 22:11:00,39.3,33.6,29.62,NW,306,0.0,0.0,80,0.00,,,0.01,0,Wunderground v.1.15,2013-01-18 21:11:00,
2013-01-18 22:21:00,39.4,33.7,29.62,NW,307,0.0,0.0,80,0.00,,,0.01,0,Wunderground v.1.15,2013-01-18 21:21:00,
2013-01-18 22:26:00,39.5,33.5,29.62,NE,35,1.0,1.0,79,0.00,,,0.01,0,Wunderground v.1.15,2013-01-18 21:26:00,
2013-01-18 22:36:00,39.7,33.4,29.61,ENE,74,1.0,2.0,78,0.00,,,0.01,0,Wunderground v.1.15,2013-01-18 21:36:00,
2013-01-18 22:41:00,39.4,33.1,29.61,ENE,74,3.0,3.0,78,0.00,,,0.01,0,Wunderground v.1.15,2013-01-18 21:41:00,
2013-01-18 22:51:00,38.9,32.9,29.62,ENE,75,1.0,1.0,79,0.00,,,0.01,0,Wunderground v.1.15,2013-01-18 21:51:00,
2013-01-18 22:56:00,39.0,33.0,29.62,East,81,1.0,2.0,79,0.00,,,0.01,0,Wunderground v.1.15,2013-01-18 21:56:00,
2013-01-18 23:06:00,38.9,32.9,29.62,East,80,3.0,5.0,79,0.00,,,0.01,0,Wunderground v.1.15,2013-01-18 22:06:00,
2013-01-18 23:11:00,38.5,32.6,29.62,East,85,1.0,1.0,79,0.00,,,0.01,0,Wunderground v.1.15,2013-01-18 22:11:00,
2013-01-18 23:21:00,38.4,33.1,29.63,East,85,0.0,0.0,81,0.00,,,0.01,0,Wunderground v.1.15,2013-01-18 22:21:00,
2013-01-18 23:26:00,38.3,32.7,29.63,East,85,0.0,0.0,80,0.00,,,0.01,0,Wunderground v.1.15,2013-01-18 22:26:00,
2013-01-18 23:31:00,38.3,32.7,29.63,ENE,71,1.0,1.0,80,0.00,,,0.01,0,Wunderground v.1.15,2013-01-18 22:31:00,
2013-01-18 23:41:00,38.5,32.9,29.63,East,82,2.0,5.0,80,0.00,,,0.01,0,Wunderground v.1.15,2013-01-18 22:41:00,
2013-01-18 23:51:00,38.5,32.9,29.62,ENE,71,2.0,2.0,80,0.00,,,0.01,0,Wunderground v.1.15,2013-01-18 22:51:00,
2013-01-18 23:56:00,38.2,32.6,29.62,ENE,61,1.0,2.0,80,0.00,,,0.01,0,Wunderground v.1.15,2013-01-18 22:56:00,